Location: ???????
(55.3754°N, 39.3545°E)
Time: 18:44:57
(UTC+00:00)

Cosmos 2098 Rocket - Pass Details

Date: 14 April 2026
Orbit: 346 x 841 km, 82.9° (Epoch: 19 May)

Event Time Altitude Azimuth Distance (km) Brightness Sun altitude
Exits shadow 23:55:56 28° 241° (WSW) 1,528 4.5 -17.5°
Maximum altitude 23:58:20 42° 292° (WNW) 1,195 4.3 -17.3°
Drops below altitude 10° 00:03:44 10° 2° (N) 2,483 6.9 -16.8°
Sets 00:06:19 0° 10° (N) 3,407 7.9 -16.5°
